Regional Weather Roundup
Issued by NWS

Home | Current Version | Previous Version | Text Only | Print | Product List | Glossary On
Versions: 1 2 3 4 5 6 7 8 9 10 11 12 13 14 15 16 17 18 19 20 21 22 23 24 25 26 27 28 29 30 31 32 33 34 35 36 37 38 39 40 41 42 43 44 45 46 47 48 49 50
000
ASUS44 KEWX 050402
RWRTX
SOUTH TEXAS REGIONAL WEATHER ROUNDUP
NATIONAL WEATHER SERVICE AUSTIN/SAN ANTONIO TX
1000 PM CST WED MAR 04 2015

NOTE: "FAIR" INDICATED FEW OR NO CLOUDS BELOW 12,000 FEET WITH NO
SIGNIFICANT WEATHER AND/OR OBSTRUCTIONS TO VISIBILITY.

* - THESE STATIONS ARE NOT NWS OR FAA STATIONS...AND ARE NOT SUBJECT
    TO NWS AND FAA QUALITY CONTROL.

TXZ171-172-183>190-050500-
TEXAS HILL COUNTRY AND EDWARDS PLATEAU

CITY           SKY/WX    TMP DP  RH WIND       PRES   REMARKS
JUNCTION       LGT RAIN  34  32  92 N10       30.21R WCI  26
*LLANO         CLOUDY    34  32  93 NE16G24   30.22F FOG     WCI  23
BURNET         LGT RAIN  33  30  88 N15G26    30.20S WCI  23
*HORSESHOE BAY CLOUDY    34  34 100 N14G26    30.19F WCI  25
*KERRVILLE     FLURRIES  33  32  94 N16G28    30.14R WCI  23
*FREDERICKSBRG CLOUDY    32  31  95 N16G25    30.14R WCI  21
*ROCKSPRINGS   MIX PCPN  32  32 100 CALM      30.12R
*BOERNE STAGE  CLOUDY    34  32  93 N22G31    30.13R WCI  22
*CASTROVILLE   CLOUDY    39  36  87 N15G30    30.09R WCI  31
HONDO          CLOUDY    38  33  82 N29G40    30.10R WCI  26
*UVALDE        LGT RAIN  39  37  91 NE22G29   30.03F WCI  29
DEL RIO        RAIN      40  36  86 NW14G28   30.19R FOG     WCI  32
LAUGHLIN AFB   CLOUDY    40  37  87 NW16      30.17R WCI  32
CARRIZO SPRGS  CLOUDY    43  41  93 N16G25    30.04R WCI  35
$$

TXZ173-191>194-202-209-217>225-228-050500-
CENTRAL AND SOUTH CENTRAL TEXAS

CITY           SKY/WX    TMP DP  RH WIND       PRES   REMARKS
GEORGETOWN     CLOUDY    36  32  87 N16G26    30.21R WCI  26
AUSTIN/BERGSTM CLOUDY    36  36 100 N24       30.16R WCI  24
AUSTIN/MABRY   CLOUDY    36  33  89 N13G28    30.18R WCI  27
*AUSTIN/EXEC   LGT RAIN  36  36 100 N23G32    30.18R WCI  24
*LAGO VISTA    MIX PCPN  34  33  95 N13G25    30.17R WCI  25
SAN MARCOS     CLOUDY    37  34  87 N21G28    30.13R WCI  27
NEW BRAUNFELS  CLOUDY    39  34  82 N25G37    30.10R WCI  28
RANDOLPH AFB   CLOUDY    38  33  84 N30G39    30.09R WCI  25
PT SAN ANTONIO CLOUDY    39  34  83 N21G28    30.08R WCI  29
SAN ANTONIO    CLOUDY    38  33  82 N17G33    30.09R WCI  28
STINSON FIELD  CLOUDY    39  33  79 N21G33    30.09R WCI  29
*PLEASANTON    CLOUDY    43  38  82 N21G29    30.07R WCI  34
*LA GRANGE     CLOUDY    40  38  91 N15G26    30.06R WCI  32
*GIDDINGS      DRIZZLE   36  34  94 N18G29    30.14R WCI  25
*GONZALES      CLOUDY    40  37  89 N18G29    30.10R FOG     WCI  31
$$

TXZ163>164-176>182-195>201-210>213-226-227-235-050500-
SOUTHEAST TEXAS

CITY           SKY/WX    TMP DP  RH WIND       PRES   REMARKS
COLLEGE STN    FLURRIES  37  34  89 N22G30    30.11R WCI  26
*BRYAN         CLOUDY    36  34  95 N15G23    30.12R WCI  26
*CALDWELL      LGT RAIN  36  36 100 NW20G31   30.14R WCI  25
*CROCKETT      CLOUDY    43  39  87 N14G20    30.08R WCI  36
*BRENHAM       DRIZZLE   40  37  88 N20G30    30.08R WCI  31
HUNTSVILLE     LGT RAIN  39  37  92 NW12G21   30.06R WCI  32
CONROE         LGT RAIN  43  41  93 NW15G25   30.03R WCI  36
HOUSTON BUSH   CLOUDY    49  46  90 N18G24    29.99R WCI  42
HOUSTON HOBBY  LGT RAIN  55  51  86 NW20      29.95R
*HOUSTON SW AP RAIN      55  53  92 NW13G22   29.97R
PEARLAND       CLOUDY    59  53  80 NW14G22   29.95R
HOUSTON HOOKS  CLOUDY    45  42  89 NW14G23   30.02R WCI  38
ELLINGTON FLD  CLOUDY    57  54  88 NW18G25   29.96R
SUGAR LAND     CLOUDY    47  44  90 N23G30    29.98R WCI  39
*HOUSTON EXEC  CLOUDY    41  39  93 N22G28    30.03R FOG     WCI  31
*CLEVELAND MUN   N/A     48  46  93 N13G24    29.99R WCI  43
*WHARTON       CLOUDY    43  41  93 N23G33    30.01R WCI  34
*COLUMBUS      CLOUDY    40  37  91 N18G29    30.03R WCI  31
$$

TXZ214>216-236>238-050500-
THE UPPER TEXAS COAST

CITY           SKY/WX    TMP DP  RH WIND       PRES   REMARKS
*ORANGE        CLOUDY    69  68  98 S6        29.91R FOG
PORT ARTHUR    CLOUDY    70  68  93 S6        29.90R
GALVESTON      CLOUDY    67  67 100 S3        29.92R FOG
ANGLETON       LGT RAIN  52  51  97 NW15G23   29.93R
*BAY CITY      LGT RAIN  54  52  93 N18G26    29.97R
PALACIOS       CLOUDY    50  47  89 N28G37    29.95R WCI  42
$$

TXZ229>234-239>247-050500-
TEXAS COASTAL BEND AND RIO GRANDE PLAINS

CITY           SKY/WX    TMP DP  RH WIND       PRES   REMARKS
VICTORIA       CLOUDY    44  42  93 N24G35    30.00R WCI  35
*BEEVILLE      CLOUDY    48  46  91 N29G37    29.96R WCI  40
ROCKPORT       CLOUDY    67  66  97 N20G31    29.91R FOG
*PORT ARANSAS  CLOUDY    67  67  99 NE3       29.88R FOG
*PORT LAVACA   CLOUDY    49  47  90 N25G32    29.97R WCI  42
*INGLESIDE     CLOUDY    70  68  94 E5        29.88R FOG
CORPUS CHRISTI CLOUDY    69  66  90 E7        29.87R
CORPUS NAS     CLOUDY    66  66 100 E5        29.87R FOG
*ROBSTOWN      NOT AVBL
ALICE          CLOUDY    69  67  93 NE6       29.88R FOG
KINGSVILLE NAS CLOUDY    69  69 100 NE6       29.87R FOG
COTULLA        CLOUDY    47  41  80 N22G32    30.05R WCI  39
*FAITH RANCH   CLOUDY    48  48 100 N22G33    30.01R WCI  41
LAREDO         CLOUDY    67  62  84 N14       29.94R
$$

TXZ248>255-050500-
DEEP SOUTH TEXAS

CITY           SKY/WX    TMP DP  RH WIND       PRES   REMARKS
BROWNSVILLE    CLOUDY    73  70  90 SE7       29.84S
PORT ISABEL    CLOUDY    71  69  93 E6        29.84R FOG
*SOUTH PADRE   CLOUDY    64  64 100 CALM      29.85R VSB 3/4
HARLINGEN      PTCLDY    71  68  90 E6        29.83R
*HEBBRONVILLE  CLOUDY   N/A N/A N/A NW10      29.90R
MCALLEN        CLOUDY    72  68  87 CALM      29.85R
*WESLACO       PTCLDY    72  67  85 CALM      29.83R HAZE
FALFURRIAS     CLOUDY    71  68  90 E3        29.85R
EDINBURG       PTCLDY    72  67  84 CALM      29.85R HAZE
*ZAPATA        MOCLDY    69  62  78 N12       29.89R
$$

TXZ213>215-236>238-242>244-246-247-251-254-255-050500-
CMAN STATIONS

STATION/POSITION TIME  TEMP    WIND        PRES    WAVE
                       AIR SEA DIR/SP/G            HT/PER
                 (UTC) (F)     (DEG/KT/KT) (MB)    (FT/S)
$$

GMZ080-GMZ150>470-050500-
OFFSHORE BUOY REPORTS

STATION/POSITION TIME  TEMP    WIND        PRES    WAVE
                       AIR SEA DIR/SP/G            HT/PER
                 (UTC) (F)     (DEG/KT/KT) (MB)    (FT/S)
$$


USA.gov is the U.S. government's official web portal to all federal, state and local government web resources and services.